Location: Beneden-Haastrecht
(52.0012°N, 4.7557°E)
Time: 05:26:57
(UTC+00:00)

CZ-4C R/B - Pass Details

Date: 24 October 2020
Orbit: 624 x 1378 km, 63.4° (Epoch: 25 November)

Event Time Altitude Azimuth Distance (km) Brightness Sun altitude
Rises 19:28:00 0° 309° (NW) 3,599 6.5 -28.2°
Reaches altitude 10° 19:30:29 10° 315° (NW) 2,760 5.6 -28.6°
Maximum altitude 19:36:53 48° 30° (NNE) 1,448 3.2 -29.5°
Enters shadow 19:37:15 48° 39° (NE) 1,464 3.2 -29.6°
